CZ-6A DEB, 54339

Orbit data source: Space-Track

CZ-6A DEB, 54339 is space debris in SSO originally from a launch on Fri, 11 Nov 2022 UTC launched from the Taiyaun Space Center, China (TSC). Debris objects in space refer to the collection of defunct objects orbiting the Earth. Examples of debris include non-operational satellites, rocket bodies, and fragments generated from explosions, collisions, or faulty payload assembly.

Loading next visibility...
Identifier
54339, 2022-151CJ
Orbit
SSO
Country
Flag of CNCN / PRC
Related business
Manufacturer
SAST
Mission
Spacecraft
Bus & Motor
Unknown
Mass
Unknown
Launch date (UTC)
2022-11-11 (4 years ago)
Launch vehicle
Unknown
Launch site
Taiyaun Space Center, China (TSC)
Object type
Payload
Rocket body
Debris
Shape & HBR
Unknown shape, 0.2 m
Radar Cross Section
Medium (>0.1 m² and <1 m²)

Expand to show TLE details & history
Last TLE update: 2 days ago

TLE from 2 days ago
0 CZ-6A DEB
1 54339U 22151CJ  26171.41371770  .00000233  00000-0  15238-3 0  9992
2 54339  98.8317 172.0751 0041784 332.2781  27.6163 14.11183111185039
Epoch: 2026-06-20T09:55Z
TLE epoch observation values (Epoch: 2026-06-20T09:55:45.209Z)
Latitude
-0.00001°
Longitude
114.50804°
Altitude
831.466 km
Speed
7.451 km/s
True Right ascension
11h 28m 18s
True Declination
0° 00' 00"
Sunlit
Object was in daylight at epoch
Visualization orbit readout
Latitude
Unknown
Longitude
Unknown
Altitude
Unknown
Speed
Unknown
Apparent Right ascension
Unknown
Apparent Declination
Unknown
Sunlit
N/A
Visualization observer readout
Local Sidereal Time
21:40:51
Azimuth
Unknown
Elevation
Unknown
Doppler factor
Unknown
Orbital elements
Apogee altitude
882.715 km
Perigee altitude
822.29 km
Semi-major axis
7,230.639 km
Eccentricity
0.00418
Inclination
98.8317°
RAAN
172.0751°
Arg. of periapsis
332.2781°
True anomaly
27.83928°
Mean anomaly
27.6163°
Eccentric anomaly
27.72769°
Mean motion
3.53003 °/min
Orbital period
101.98 mins
BSTAR
0.00015238
Loading maneuver chart data...
Computing Atmospheric mass density...
Loading historical data...
Loading historical data...
Loading historical data...
Loading historical data...
Loading historical data...
Loading historical data...
Loading historical data...

Documentation

Showing up to 5 results
|